DateTimeUTC,F1_A11,F1_S11,BsB_S11,BsG_S11,BsR_S11,BbsB_S11,BbsG_S11,BbsR_S11,BaB_A11,BaG_A11,BaR_A11,Tu_S11,T_S11,Uu_S11,U_S11,P_S11,T1_A11
2021-07-17T07:00:00Z,00000200,20000000,,,,,,,0000.04,-000.03,0000.18,17.7,24.5,06.7,04.4,0674.9,30.9
2021-07-17T07:01:00Z,00000200,20000000,,,,,,,-000.11,0000.12,-000.27,17.7,24.5,06.6,04.3,0674.9,30.9
2021-07-17T07:02:00Z,00000200,20000000,,,,,,,-000.29,0000.11,0000.21,17.6,24.5,06.5,04.3,0674.9,31.0
2021-07-17T07:03:00Z,00000200,60000000,,,,,,,0000.04,0000.01,0000.10,17.6,24.5,06.6,04.3,0674.9,31.0
2021-07-17T07:04:00Z,00000200,40000000,-000.20,0000.24,-000.02,0000.56,-000.04,0000.12,0000.11,-000.23,-000.34,17.6,24.2,06.5,04.3,0675.9,31.0
2021-07-17T07:05:00Z,00000200,00000000,0000.71,0000.16,0000.19,0000.28,0000.13,-000.31,0000.22,0000.34,0000.15,17.7,24.2,06.5,04.4,0676.0,30.9
2021-07-17T07:06:00Z,00000200,00000000,0000.22,0000.43,0000.13,0000.50,-000.17,-000.27,0000.22,-000.07,0000.38,17.8,24.2,06.5,04.4,0676.0,31.0
2021-07-17T07:07:00Z,00000200,00000000,0000.47,-000.27,0000.03,0000.46,0000.24,0000.14,-000.21,0000.06,-000.02,17.8,24.2,06.5,04.4,0676.0,31.0
2021-07-17T07:08:00Z,00000200,00000000,0001.33,0000.07,0000.04,0000.53,0000.06,-000.05,0000.06,0000.28,0000.01,17.8,24.2,06.4,04.3,0676.0,31.0
2021-07-17T07:09:00Z,00000200,00000000,0000.06,0000.14,0000.19,0000.37,0000.08,0000.01,-000.04,-000.30,0000.02,17.8,24.2,06.4,04.3,0676.0,31.0
2021-07-17T07:10:00Z,00000200,00000000,0000.32,0000.09,-000.09,-000.40,0000.02,0000.01,0000.36,0000.06,-000.19,17.8,24.2,06.5,04.4,0676.1,31.0
2021-07-17T07:11:00Z,00000200,00000000,0000.32,0000.22,0000.39,-000.25,0000.10,-000.20,-000.05,0000.18,0000.06,17.8,24.2,06.4,04.3,0676.1,30.9
2021-07-17T07:12:00Z,00000200,00000000,-000.25,0000.08,0000.30,-000.10,0000.01,-000.17,0000.07,-000.29,0000.10,17.8,24.2,06.4,04.4,0676.0,31.0
2021-07-17T07:13:00Z,00000200,00000000,-000.00,0000.19,-000.06,0000.06,-000.04,0000.08,0000.08,0000.53,0000.06,17.8,24.2,06.6,04.5,0676.0,31.0
2021-07-17T07:14:00Z,00000200,00000000,0000.32,0000.15,0000.10,0000.30,-000.08,-000.01,0000.22,-000.05,0000.58,17.8,24.2,06.7,04.5,0676.0,30.9
2021-07-17T07:15:00Z,00000200,00000000,0000.53,-000.10,0000.24,0000.38,-000.03,-000.33,-000.08,0000.05,-000.24,17.7,24.2,06.7,04.5,0676.0,30.9
2021-07-17T07:16:00Z,00000200,00000000,0000.13,0000.34,0000.03,0000.36,-000.11,0000.01,-000.02,0000.14,-000.06,17.7,24.1,06.7,04.5,0676.0,30.9
2021-07-17T07:17:00Z,00000200,00000000,0000.44,0000.30,-000.18,0000.41,0000.23,-000.30,0000.14,0000.26,0000.23,17.7,24.1,06.7,04.5,0676.0,30.9
2021-07-17T07:18:00Z,00000200,00000000,0000.45,-000.12,0000.11,0000.15,0000.35,-000.30,0000.26,-000.11,0000.11,17.7,24.1,06.8,04.6,0676.0,30.9
2021-07-17T07:19:00Z,00000200,00000000,0000.40,0000.21,0000.17,0000.31,0000.13,-000.12,-000.10,0000.09,-000.17,17.7,24.1,06.7,04.5,0676.0,30.9
2021-07-17T07:20:00Z,00000200,00000000,-000.01,0000.25,-000.15,-000.11,-000.24,-000.17,0000.41,0000.18,0000.17,17.7,24.1,06.7,04.6,0676.0,30.9
2021-07-17T07:21:00Z,00000200,00000000,0000.72,0000.07,0000.71,-000.20,0000.26,0000.33,-000.04,0000.01,0000.35,17.7,24.1,06.7,04.5,0676.0,30.9
2021-07-17T07:22:00Z,00000200,00000000,-000.06,-000.06,0000.21,0000.39,0000.00,-000.07,-000.02,-000.01,-000.31,17.8,24.1,06.7,04.5,0676.0,31.0
2021-07-17T07:23:00Z,00000200,00000000,0000.71,0000.07,0000.38,0000.42,0000.12,-000.21,0000.19,0000.06,0000.15,17.8,24.1,06.8,04.6,0676.0,31.0
2021-07-17T07:24:00Z,00000200,00000000,0000.37,0000.12,0000.04,0000.74,-000.42,-000.21,0000.12,0000.21,0000.42,17.8,24.1,06.7,04.6,0676.0,30.9
2021-07-17T07:25:00Z,00000200,00000000,-000.05,-000.02,0000.34,0000.41,-000.14,0000.42,-000.17,0000.15,0000.00,17.7,24.1,06.8,04.6,0676.0,30.9
2021-07-17T07:26:00Z,00000200,00000000,0000.55,-000.02,0000.20,-000.01,-000.13,0000.30,0000.30,0000.06,-000.44,17.7,24.1,06.7,04.6,0676.0,30.9
2021-07-17T07:27:00Z,00000200,00000000,0000.12,0000.17,0000.04,0000.41,0000.08,-000.47,-000.04,-000.35,-000.00,17.7,24.1,06.8,04.6,0676.0,31.0
2021-07-17T07:28:00Z,00000200,00000000,0000.38,-000.02,0000.18,0000.26,-000.13,0000.11,0000.01,0000.28,0000.11,17.7,24.1,06.9,04.6,0676.0,30.9
2021-07-17T07:29:00Z,00000200,00000000,0000.20,0000.02,0000.35,0000.42,-000.13,-000.08,0000.03,-000.25,0000.06,17.7,24.0,06.9,04.6,0676.0,30.9
2021-07-17T07:30:00Z,00000200,00000000,-000.23,0000.06,0000.28,-000.37,0000.13,0000.02,-000.13,-000.11,0000.03,17.7,24.0,06.8,04.6,0676.0,30.9
2021-07-17T07:31:00Z,00000200,00000000,0000.82,-000.03,0000.11,0000.50,-000.23,-000.08,0000.12,0000.55,0000.12,17.7,24.0,06.8,04.6,0676.0,31.0
2021-07-17T07:32:00Z,00000200,00000000,0000.55,0000.16,-000.29,0000.04,-000.02,-000.08,0000.03,-000.03,-000.28,17.6,24.0,06.8,04.6,0676.0,30.9
2021-07-17T07:33:00Z,00000200,00000000,0000.15,0000.20,0000.13,0000.25,-000.22,0000.41,0000.09,0000.06,0000.05,17.6,24.0,06.7,04.6,0676.0,30.9
2021-07-17T07:34:00Z,00000200,00000000,0001.08,-000.05,0000.23,0000.13,-000.02,0000.20,0000.31,-000.21,0000.10,17.6,24.0,06.9,04.7,0675.9,30.9
2021-07-17T07:35:00Z,00000200,00000000,0000.53,0000.20,0000.22,0000.17,-000.03,0000.16,-000.16,0000.71,0000.77,17.6,24.0,06.9,04.7,0676.0,30.9
2021-07-17T07:36:00Z,00000200,00000000,0000.03,0000.24,0000.10,0000.28,-000.50,-000.10,0000.39,-000.15,-000.19,17.7,24.0,07.0,04.7,0675.9,31.0
2021-07-17T07:37:00Z,00000200,00000000,0000.55,0000.01,0000.04,0000.07,0000.28,0000.12,-000.29,-000.01,-000.05,17.7,24.0,07.1,04.8,0675.9,31.0
2021-07-17T07:38:00Z,00000200,00000000,0000.12,0000.27,-000.04,0000.11,-000.35,-000.06,0000.33,0000.06,0000.08,17.7,24.0,06.9,04.7,0675.9,30.9
2021-07-17T07:39:00Z,00000200,00000000,0000.70,0000.05,0000.00,0000.25,0000.14,-000.07,-000.01,0000.17,0000.27,17.7,24.0,07.0,04.7,0675.9,30.9
2021-07-17T07:40:00Z,00000200,00000000,0000.65,0000.27,0000.10,0000.66,-000.04,-000.14,0000.17,-000.05,-000.26,17.7,24.0,07.0,04.7,0675.8,30.9
2021-07-17T07:41:00Z,00000200,00000000,-000.12,0000.03,0000.19,0000.34,0000.16,0000.14,0000.25,0000.35,0000.02,17.7,24.0,07.0,04.8,0675.8,30.9
2021-07-17T07:42:00Z,00000200,00000000,0000.64,-000.19,-000.27,-000.29,-000.12,0000.05,-000.23,-000.37,0000.02,17.7,24.0,06.9,04.7,0675.8,30.9
2021-07-17T07:43:00Z,00000200,00000000,-000.02,-000.11,-000.04,-000.10,-000.12,-000.16,0000.41,0000.21,0000.12,17.7,24.0,07.0,04.7,0675.9,30.9
2021-07-17T07:44:00Z,00000200,00000000,0000.56,0000.05,0000.11,0000.61,0000.03,0000.02,-000.22,-000.12,-000.15,17.6,24.0,06.9,04.7,0675.9,30.9
2021-07-17T07:45:00Z,00000200,00000000,0000.52,-000.34,0000.27,0000.44,-000.03,0000.06,-000.06,0000.05,-000.26,17.6,24.0,06.9,04.7,0675.9,30.9
2021-07-17T07:46:00Z,00000200,00000000,0000.60,-000.00,-000.04,-000.02,-000.04,0000.06,0000.14,0000.12,0000.35,17.6,24.0,07.0,04.7,0675.8,30.9
2021-07-17T07:47:00Z,00000200,00000000,-000.23,0000.17,-000.09,0000.26,-000.04,0000.04,-000.07,0000.27,0000.10,17.6,24.0,06.9,04.7,0675.8,31.0
2021-07-17T07:48:00Z,00000200,00000000,-000.00,0000.04,0000.01,0000.27,-000.28,0000.10,0000.12,-000.17,-000.02,17.6,24.0,07.1,04.8,0675.8,31.0
2021-07-17T07:49:00Z,00000200,00000000,0000.10,0000.39,0000.05,0000.92,0000.13,0000.18,0000.04,0000.21,0000.22,17.6,23.9,07.0,04.7,0675.8,30.9
2021-07-17T07:50:00Z,00000200,00000000,0000.22,0000.27,-000.05,0000.49,-000.14,-000.02,0000.32,-000.12,-000.02,17.6,23.9,07.1,04.8,0675.8,30.9
2021-07-17T07:51:00Z,00000200,00000000,0000.04,-000.16,0000.38,-000.01,0000.01,0000.32,-000.05,0000.28,0000.18,17.7,24.0,06.9,04.7,0675.8,31.0
2021-07-17T07:52:00Z,00000200,00000000,0000.24,0000.09,0000.05,0000.42,-000.26,-000.11,-000.02,-000.23,-000.04,17.7,24.0,07.0,04.8,0675.8,31.0
2021-07-17T07:53:00Z,00000200,00000000,0000.59,0000.04,-000.01,-000.12,0000.28,-000.14,-000.15,0000.18,-000.04,17.7,24.0,06.9,04.7,0675.8,31.0
2021-07-17T07:54:00Z,00000200,00000000,0000.07,0000.11,0000.21,-000.30,-000.13,0000.08,0000.11,-000.22,-000.24,17.7,24.0,06.9,04.7,0675.9,31.0
2021-07-17T07:55:00Z,00000200,00000000,0000.38,0000.27,0000.23,0000.14,-000.15,-000.09,-000.05,-000.11,-000.05,17.7,24.0,06.9,04.7,0675.8,30.9
2021-07-17T07:56:00Z,00000200,00000000,0000.35,-000.09,0000.40,0000.23,0000.06,0000.20,0000.22,0000.56,0000.28,17.7,24.0,06.9,04.7,0675.8,30.9
2021-07-17T07:57:00Z,00000200,40000000,,,,,,,-000.23,-000.36,-000.15,17.7,24.0,06.8,04.6,0676.0,30.9
2021-07-17T07:58:00Z,00000200,60000000,,,,,,,0000.15,0000.11,0000.15,17.5,24.1,07.0,04.6,0674.9,30.9
2021-07-17T07:59:00Z,00000200,20000000,,,,,,,0000.08,0000.15,0000.10,17.4,24.2,07.0,04.6,0674.8,30.9
